Regional Weather Roundup
Issued by NWS

Home | Current Version | Previous Version | Graphics & Text | Print | Product List | Glossary On
Versions: 1 2 3 4 5 6 7 8 9 10 11 12 13 14 15 16 17 18 19 20 21 22 23 24 25 26 27 28 29 30 31 32 33 34 35 36 37 38 39 40 41 42 43 44 45 46 47 48 49 50
000
ASUS43 KMPX 041810
RWRMN
WEATHER ROUNDUP FOR MINNESOTA
NATIONAL WEATHER SERVICE TWIN CITIES/CHANHASSEN MN
100 PM CDT SAT JUL 04 2015


NOTE: "FAIR" INDICATES FEW OR NO CLOUDS BELOW 12,000 FEET WITH NO
SIGNIFICANT WEATHER AND/OR OBSTRUCTIONS TO VISIBILITY. N/A MEANS
CURRENT SKY AND/OR WEATHER CONDITIONS ARE NOT AVAILABLE.

MNZ060>063-068>070-041900-
   Twin Cities Metro

CITY           SKY/WX    TMP DP  RH WIND       PRES   REMARKS
TWIN CITIES    PTSUNNY   81  64  56 SW5       29.93F HAZE
6HR MIN TEMP:  66; 6HR MAX TEMP:  82;

ST PAUL        PTSUNNY   79  65  62 SW8       29.93F HAZE
CRYSTAL        SUNNY     83  62  49 SW9       29.92S HAZE
BLAINE         MOSUNNY   82  64  54 S6        29.93F HAZE
LAKEVILLE      MOSUNNY   81  66  61 S6        29.95S
EDEN PRAIRIE   MOSUNNY   81  67  62 S6        29.93F HAZE
6HR MIN TEMP:  64; 6HR MAX TEMP:  81;

SOUTH ST PAUL  MOSUNNY   81  64  57 SE5       29.93F
LAKE ELMO      FAIR      81  68  65 S5        29.96S HAZE
$$
MNZ001>005-007-008-013>017-022>024-027-028-041900-
   Northwest Minnesota

CITY           SKY/WX    TMP DP  RH WIND       PRES   REMARKS
BEMIDJI        SUNNY     78  61  54 S8        29.90F
HALLOCK        SUNNY     81  70  69 S15       29.79F HAZE
ROSEAU         SUNNY     79  66  65 S12       29.85F HAZE
WARROAD        SUNNY     79  66  65 S7        29.86F HAZE
THIEF RVR FALL SUNNY     81  64  57 S13       29.86S
CROOKSTON      SUNNY     81  66  61 S14       29.84F HAZE
FOSSTON        SUNNY     77  64  65 S12       29.89S HAZE
DETROIT LAKES  SUNNY     81  63  54 S10       29.90F HAZE
MOORHEAD       SUNNY     81  66  61 S10       29.85F
PARK RAPIDS    PTSUNNY   80  61  52 S8        29.91F HAZE
MAHNOMEN       FAIR      79  63  58 S10       29.87F HAZE
$$
MNZ006-009>011-018-025>026-041900-
   North Central Minnesota

CITY           SKY/WX    TMP DP  RH WIND       PRES   REMARKS
BAUDETTE       SUNNY     78  59  51 S12       29.87F
FLAG ISLAND    SUNNY     72  64  78 S10       29.85F
INTL FALLS     MOSUNNY   78  58  49 SW9       29.91F
6HR MIN TEMP:  53; 6HR MAX TEMP:  78;

WASKISH        SUNNY     79  61  53 SE7       29.89F
BIG FORK       SUNNY     81  59  47 SW8       29.92F
LONGVILLE      SUNNY     79  57  47 S6        29.93S
GRAND RAPIDS   MOSUNNY   79  55  44 S8        29.93F
CRANE LAKE     SUNNY     73  54  49 S5        29.95S
ORR            SUNNY     79  54  41 CALM      29.91F
COOK           SUNNY     77  54  44 SE3       29.94F
WALKER         FAIR      77  60  54 S5        29.91F
$$
MNZ012-019>021-037-041900-
   Northeast Minnesota

CITY           SKY/WX    TMP DP  RH WIND       PRES   REMARKS
DULUTH         MOSUNNY   74  59  59 SE7       29.96F
6HR MIN TEMP:  61; 6HR MAX TEMP:  74;

ELY            SUNNY     75  50  41 E3        29.95F
HIBBING        SUNNY     78  53  41 VRB7      29.94F
DULUTH HARBOR  SUNNY     66  61  82 NE9       29.97S
TWO HARBORS    SUNNY     75  63  64 E8        29.95S
SILVER BAY     SUNNY     73  57  56 E7        29.96F
GRAND MARAIS     N/A     63  54  72 CALM      29.98S
G MARAIS ARPRT MOSUNNY   68  54  60 SE6       30.02S
$$
MNZ029>031-032-039>041-046>048-054>057-064-041900-
   West Central Minnesota

CITY           SKY/WX    TMP DP  RH WIND       PRES   REMARKS
FERGUS FALLS   SUNNY     81  66  61 S12       29.87F
WHEATON        SUNNY     79  66  65 SE10      29.89S
MORRIS         SUNNY     82  66  57 S9        29.90S
ALEXANDRIA     MOSUNNY   79  66  64 VRB7      29.93F HAZE
ELBOW LAKE     FAIR      79  68  67 S10       29.90S
WADENA         SUNNY     79  63  57 S9        29.91F HAZE
GLENWOOD       SUNNY     81  66  61 S7        29.94S
APPLETON       MOSUNNY   86  64  48 SE8       29.90S
BENSON         MOSUNNY   82  66  57 SW7       29.91F
ORTONVILLE     FAIR      82  63  51 S8        29.89F
MADISON        SUNNY     81  63  54 S10       29.90F
WILLMAR          N/A     81  70  69 SW7       29.94S
$$
MNZ033>034-036-042>043-049>051-058-059-041900-
   Central Minnesota

CITY           SKY/WX    TMP DP  RH WIND       PRES   REMARKS
ST CLOUD       MOSUNNY   81  62  52 VRB7      29.92F HAZE
6HR MIN TEMP:  65; 6HR MAX TEMP:  82;

SAUK CENTRE    FAIR      80  65  61 SW3       29.93F HAZE
PAYNESVILLE    PTSUNNY   77  65  65 E5        29.93F
AITKIN         SUNNY     81  59  47 S5        29.92F
PINE RIVER       N/A     79  63  57 S8        29.96S HAZE
BRAINERD       PTSUNNY   80  61  52 S7        29.93F HAZE
STAPLES        SUNNY     81  61  50 S8        29.92F HAZE
LONG PRAIRIE   FAIR      79  64  61 S7        29.93F HAZE
LITTLE FALLS   MOSUNNY   79  61  53 SW5       29.93S HAZE
LITCHFIELD     SUNNY     82  72  69 CALM      29.94S
BUFFALO          N/A     80  65  59 S5        29.94F
MAPLE LAKE     SUNNY     82  69  66 CALM      29.94S
$$
MNZ037-044-045-052-053-041900-
   East Central Minnesota

CITY           SKY/WX    TMP DP  RH WIND       PRES   REMARKS
PRINCETON      MOSUNNY   82  63  51 SE6       29.93F HAZE
MORA           SUNNY     77  59  53 E5        29.95F HAZE
CAMBRIDGE      SUNNY     82  64  54 S5        29.92S HAZE
RUSH CITY      MOSUNNY   80  59  49 CALM      29.94S
MOOSE LAKE     SUNNY     79  57  47 E5        29.92F
HINCKLEY       FAIR      79  59  50 CALM      29.94S
CLOQUET        SUNNY     75  57  53 E9        29.96S
MCGREGOR       SUNNY     79  57  47 S6        29.94S
$$
MNZ071>073-080-081-089-090-097-098-041900-
   Southwest Minnesota

CITY           SKY/WX    TMP DP  RH WIND       PRES   REMARKS
MONTEVIDEO     MOSUNNY   84  70  61 S7        29.92F
GRANITE FALLS  MOSUNNY   81  67  63 S6        29.94S
CANBY          SUNNY     80  62  53 S8        29.92F
MARSHALL       MOSUNNY   81  63  54 S10         N/A
REDWOOD FALLS  MOSUNNY   82  66  58 S10       29.93S
OLIVIA         MOSUNNY   77  63  61 S6        29.93S
PIPESTONE      MOSUNNY   79  63  57 S8        29.96S
WINDOM         SUNNY     81  63  54 S7        29.97S
WORTHINGTON    MOSUNNY   77  63  61 S9        29.97S
JACKSON        MOSUNNY   79  63  57 SW6       29.98F
TRACY          SUNNY     80  64  59 SW12      29.96S
SLAYTON        SUNNY     78  62  58 CALM      29.98S
$$
MNZ065>067-074>077-082>085-091>093-041900-
   South Central Minnesota

CITY           SKY/WX    TMP DP  RH WIND       PRES   REMARKS
MANKATO        CLOUDY    79  64  61 S7        29.96S
NEW ULM        MOSUNNY   81  66  61 S6        29.94F
ST JAMES       SUNNY     81  64  57 S10       29.96S
FAIRMONT       SUNNY     79  59  50 S9        29.97S
GLENCOE        PTSUNNY   82  70  67 SW8       29.94S
FARIBAULT      SUNNY     81  64  57 S5        29.96F
OWATONNA       MOSUNNY   79  64  61 SW5       29.97S
WASECA         MOSUNNY   77  64  65 S5        29.98S
ALBERT LEA     SUNNY     79  63  57 S8        29.98S
$$
MNZ078>079-086>088-094>096-041900-
   Southeast Minnesota

CITY           SKY/WX    TMP DP  RH WIND       PRES   REMARKS
ROCHESTER      MOSUNNY   79  63  57 SW7       29.99S
6HR MIN TEMP:  60; 6HR MAX TEMP:  79;

RED WING       SUNNY     82  64  54 CALM      29.94S
STANTON        MOSUNNY   81  66  61 SE5       29.94F
DODGE CENTER   MOSUNNY   77  64  65 W5        29.98S
WINONA         SUNNY     79  61  53 CALM      29.96F
AUSTIN         MOSUNNY   81  64  57 W7        29.98S
PRESTON        SUNNY     77  62  58 SW3       30.00S
$$
ABBREVIATIONS USED IN REMARKS
   TC - TEMPERATURES IN CELSIUS
  WCI - WIND CHILL INDEX
   HX - HEAT INDEX
  VSB - VISIBILITY
$$


USA.gov is the U.S. government's official web portal to all federal, state and local government web resources and services.